Regional Weather Roundup
Issued by NWS Kansas City/Pleasant Hill, MO

Home | Current Version | Previous Version | Graphics & Text | Print | Product List | Glossary Off
Versions: 1 2 3 4 5 6 7 8 9 10 11 12 13 14 15 16 17 18 19 20 21 22 23 24 25 26 27

000
ASUS43 KEAX 220010
RWREAX

WEATHER ROUNDUP FOR EASTERN KANSAS AND NORTHWEST MISSOURI
NATIONAL WEATHER SERVICE KANSAS CITY/PLEASANT HILL MO
700 PM CDT SAT APR 21 2018

KSZ040-057-103>105-MOZ028-029-037-043-220100-
...KANSAS CITY METROPOLITAN AREA...

CITY           SKY/WX    TMP DP  RH WIND       PRES   REMARKS
K.C. INTL      CLOUDY    62  30  29 E17       30.12S
6HR MIN TEMP:  55; 6HR MAX TEMP:  64;

K.C. DOWNTOWN  CLOUDY    65  30  27 E12G21    30.09F
6HR MIN TEMP:  57; 6HR MAX TEMP:  67;

LEES SUMMIT    CLOUDY    63  30  28 E15G22    30.10F
6HR MIN TEMP:  57; 6HR MAX TEMP:  66;

OLATHE - IXD   CLOUDY    62  35  36 E9        30.10S
6HR MIN TEMP:  54; 6HR MAX TEMP:  66;

OLATHE - OJC   CLOUDY    61  33  35 E10       30.09S
6HR MIN TEMP:  53; 6HR MAX TEMP:  64;

LAWRENCE       CLOUDY    54  44  69 NW15      30.11F

$$

MOZ001>008-011>017-020>025-030>033-038>040-044>046-053-054-220100-
...NORTHERN AND CENTRAL MISSOURI...

CITY           SKY/WX    TMP DP  RH WIND       PRES   REMARKS
ST. JOSEPH     CLOUDY    60  32  34 E13G22    30.15R
6HR MIN TEMP:  55; 6HR MAX TEMP:  63;

MOSBY          CLOUDY    63  27  25 E20G25    30.12F
WARRENSBURG    CLOUDY    61  30  31 NE16G23   30.10F
WHITEMAN AFB   CLOUDY    63  31  30 E16       30.06F
6HR MIN TEMP:  63; 6HR MAX TEMP:  68;

CLINTON        CLOUDY    63  34  34 E15       30.09R
SEDALIA        CLOUDY    63  30  28 NE15      30.13F
6HR MIN TEMP:  62; 6HR MAX TEMP:  69;

WARSAW         NOT AVBL
CHILLICOTHE      N/A     59  29  31 E8        30.18F
6HR MIN TEMP:  59; 6HR MAX TEMP:  63;

KIRKSVILLE     CLOUDY    57  30  35 E10       30.23R
6HR MIN TEMP:  57; 6HR MAX TEMP:  62;


$$

MOZ041-047>049-056>058-063>065-088>090-097-220100-
...EASTERN AND SOUTHERN MISSOURI...

CITY           SKY/WX    TMP DP  RH WIND       PRES   REMARKS
ST. LOUIS INTL CLOUDY    63  32  31 E13       30.21R
6HR MIN TEMP:  62; 6HR MAX TEMP:  67;

SPIRIT OF STL  CLOUDY    64  34  32 E9        30.17F
COLUMBIA       CLOUDY    62  29  28 NE16      30.14F
JEFFERSON CITY CLOUDY    65  29  25 E8        30.14S
ROLLA          CLOUDY    63  34  33 E14G21    30.14R
OSAGE BEACH    MOCLDY    65  33  30 NE10      30.10F
SPRINGFIELD    CLOUDY    64  38  38 E7        30.05F
BRANSON        CLOUDY    63  41  45 E9        30.03F
JOPLIN         LGT RAIN  54  53  97 W12       30.09R FOG
WEST PLAINS    CLOUDY    65  34  31 E9        30.10F

$$

IAZ060-094-KSZ022-034>040-054-083-096-NEZ052-066-093-220100-
...KANSAS...SOUTHEAST NEBRASKA AND IOWA...

CITY           SKY/WX    TMP DP  RH WIND       PRES   REMARKS
TOPEKA         CLOUDY    51  44  77 NW7       30.13F
6HR MIN TEMP:  47; 6HR MAX TEMP:  53; 6HR PCP:  0.02;

MANHATTAN      LGT RAIN  48  45  89 NE3       30.18F FOG
EMPORIA        RAIN      45  43  93 NW7       30.14F FOG
CHANUTE        LGT RAIN  47  45  93 N14       30.13S FOG
WICHITA        LGT RAIN  46  44  93 NE12      30.13R FOG
OMAHA          CLOUDY    54  34  46 N9        30.24R
LINCOLN        CLOUDY    50  37  61 E10       30.23R
FALLS CITY     CLOUDY    52  40  63 N6        30.17S
LAMONI         CLOUDY    56  29  35 NE8       30.20S
DES MOINES     CLOUDY    57  24  28 E10       30.26S

$$





USA.gov is the U.S. government's official web portal to all federal, state and local government web resources and services.